Regional Weather Roundup
Issued by NWS Sterling, VA

Home | Current Version | Previous Version | Graphics & Text | Print | Product List | Glossary On
Versions: 1 2 3 4 5 6 7 8 9 10 11 12 13 14 15 16 17 18 19 20 21 22 23 24 25 26 27 28 29 30 31 32 33 34 35 36 37 38 39 40 41 42 43 44 45 46 47 48 49 50
000
ASUS41 KLWX 272210
RWRLWX

REGIONAL WEATHER ROUNDUP
NATIONAL WEATHER SERVICE BALTIMORE MD/WASHINGTON DC
600 PM EDT WED AUG 27 2014

Note: "FAIR" indicates few or no clouds below 12,000 feet
with no significant weather and/or obstructions to visibility.
 TC=TEMPERATURE CELSIUS

 * =Non NWS site. Station does not report precipitation (e.g. rain,
    snow, etc.), thunder, or fog.

DCZ001-MDZ009-015-VAZ040>042-051-053>054-272300-
WASHINGTON METRO
  /KDAA//-FT BELVOIR

CITY           SKY/WX    TMP DP  RH WIND       PRES   REMARKS
WASHINGTON NAT MOSUNNY   89  65  44 CALM      29.94F HX  91
DULLES         MOSUNNY   86  66  51 W5        29.95F
ANDREWS AFB    SUNNY     86  66  51 SW9       29.94F
QUANTICO       SUNNY     86  64  47 CALM      29.95F
COLLEGE PARK*  SUNNY     90  63  40 SW3       29.93F HX  90
LEESBURG*      SUNNY     88  70  55 W3        29.96F HX  92
MANASSAS*      SUNNY     86  66  51 SW5       29.95F
GAITHERSBURG*  SUNNY     84  68  58 NW5       29.98F

$$

MDZ006>007-011-014-272300-
BALTIMORE METRO

CITY           SKY/WX    TMP DP  RH WIND       PRES   REMARKS
BWI AIRPORT    MOSUNNY   88  65  46 W5        29.92F HX  90
MD SCIENCE CTR   N/A     88  64  44 MISG      29.93S
ANNAPOLIS      SUNNY     83  67  58 SE8       29.93F
FORT MEADE*    SUNNY     82  66  57 CALM      29.95F

$$

MDZ012-015-019>023-272300-
MARYLAND EASTERN SHORE

CITY           SKY/WX    TMP DP  RH WIND       PRES   REMARKS
OCEAN CITY     SUNNY     77  64  64 SE5       29.95S
SALISBURY      SUNNY     85  67  54 SE10      29.94S
BAY BRIDGE AP*   N/A     84  63  48 S5        29.93F
CAMBRIDGE*     SUNNY     84  52  32 W3        29.94S
EASTON*        SUNNY     88  63  42 NW6       29.98S

$$

MDZ017>025-272300-
SOUTHERN MARYLAND

CITY           SKY/WX    TMP DP  RH WIND       PRES   REMARKS
PATUXENT RIVER MOSUNNY   83  64  52 SW6       29.94F
ST INIGOES     SUNNY     84  62  47 VRB3      29.94F
LEONARDTOWN*   SUNNY     84  59  42 SW8       29.96S

$$

MDZ003>005-272300-
NORTH CENTRAL MARYLAND

CITY           SKY/WX    TMP DP  RH WIND       PRES   REMARKS
FREDERICK*     SUNNY     90  73  58 SW3       29.97S HX  98
HAGERSTOWN APT MOSUNNY   85  67  54 S6        29.96F
WESTMINSTER*   SUNNY     84  70  61 W7        29.97S

$$

MDZ501>502-272300-
WESTERN MARYLAND

CITY           SKY/WX    TMP DP  RH WIND       PRES   REMARKS
OAKLAND*       MOSUNNY   77  68  73 W8        30.11F
CUMBERLAND*    SUNNY     90  64  43 NW5       30.00R HX  91

$$

VAZ025>031-272300-
SHENANDOAH VALLEY

CITY           SKY/WX    TMP DP  RH WIND       PRES   REMARKS
WINCHESTER*    SUNNY     86  66  51 S7        29.96F
STAUNTON*      SUNNY     85  63  48 E3        30.02F

$$

WVZ021-048>050-054>055-272300-
EASTERN WEST VIRGINIA PANHANDLE

CITY           SKY/WX    TMP DP  RH WIND       PRES   REMARKS
MARTINSBURG    MOSUNNY   86  67  52 SE8       29.96F
PETERSBURG*    NOT AVBL

$$

VAZ036>039-050-272300-
CENTRAL FOOTHILLS

CITY           SKY/WX    TMP DP  RH WIND       PRES   REMARKS
CHARLOTTESVILL SUNNY     84  65  52 SW3       29.97F
ORANGE*        SUNNY     86  63  45 CALM      29.98F

$$

VAZ055>057-272300-
NORTH AND CENTRAL PIEDMONT

CITY           SKY/WX    TMP DP  RH WIND       PRES   REMARKS
FREDERICKSBRG* SUNNY     88  63  43 W3        29.94F
STAFFORD*      SUNNY     85  63  48 CALM      29.99F

$$

NCZ024-NYZ072-PAZ021-071-VAZ022-071-272300-
OTHER REGIONAL OBSERVATIONS

CITY           SKY/WX    TMP DP  RH WIND       PRES   REMARKS
NEW YORK CITY  SUNNY     86  64  47 VRB3      29.90F
PHILADELPHIA   MOSUNNY   88  65  46 SW10      29.91S HX  90
PITTSBURGH     MOSUNNY   82  70  66 NW13      30.01F
ROANOKE        SUNNY     84  60  44 SW5       30.04F
RICHMOND       MOSUNNY   89  58  34 NW5       29.95F
RALEIGH        SUNNY     85  58  39 N7        29.99S

$$

ANZ530>537-272300-
MARINE OBSERVATIONS

STATION/POSITION TIME  TEMP    WIND        PRES
                       AIR SEA DIR/SP/G
                 (UTC) (F)     (DEG/KT/KT) (MB)
THOMAS PT LIGHT  2200   80 79  180/  9/ 10 1014.3F
BALT KEY BRIDGE  2200   91     230/  4/  5 1013.1F
COVE POINT       2200   81     180/  4/  5 1013.8F
LEWISETTA        2200   82 79  130/  2/  2 1013.7F
SOLOMONS ISLAND  2200      82                N/A
PINEY POINT      2200          170/  2/  3   N/A

$$



USA.gov is the U.S. government's official web portal to all federal, state and local government web resources and services.